FENGYUN 1C DEB

Satellite information

Favourite Embed

Satellite Type and Status

DEBRISIN ORBIT

Key statistics

Satellite FENGYUN 1C DEB at a glance.

Uptime

9659

Days in orbit

Revolutions

≈ 14.6

Per day

Orbit

SSO

Sun Synchronous Orbit

Inclination

99.4

Latest

Satellite identification and parameters

Extended collection of information and parameters for FENGYUN 1C DEB.

Object identification

Identified? True

Debris? True

Object name: FENGYUN 1C DEB

International designator: 1999-025AXR

Object number (NORAD): 30879

Object ID (CCSDS): 30879

Country: PEOPLES REPUBLIC OF CHINA (PRC)

Current information (Y/N): Y

RCS size: SMALL

Orbital parameters

Period: 98.405 minutes

Inclination: 99.3583 deg

SMA: 7060.526 km

Apoapsis: 833.657 km

Periapsis: 531.125 km

RAAN: 139.274 deg

Eccentricy: 0.02142422

Argument of periapsis: 90.5893 deg

Mean anomaly: 271.9857 deg

Mean motion: 14.63346508 rev/day

Mean motion (dot): 0.00024 rev/day2

B* drag term: 0.0033266247 1/REarth

Two-line elements (TLE)

Creation date: Oct. 18, 2025, 2:17 a.m.

Reference frame: TEME

Reference center: EARTH

Epoch: Oct. 17, 2025, 9:11 a.m. UTC

TLE line 0: 0 FENGYUN 1C DEB

TLE line 1: 1 30879U 99025AXR 25290.38278051 .00024000 00000-0 33266-2 0 9992

TLE line 2: 2 30879 99.3583 139.2740 0214242 90.5893 271.9857 14.63346508611143

Live tracking on map

Real-time ground track for satellite FENGYUN 1C DEB.

In-orbit conjunctions

A list of the most updated potential collisions computed for object FENGYUN 1C DEB.

Target Orbit TCA Probability of collision Miss distance Type
IRS 1C SSO 2025-07-23 01:22:16 0.0001424839 736.0 (m) PAYLOAD

Associated space launch

Chinese polar orbiting meteorological satellite

FENGYUN 1C DEB was lifted into orbit during the mission ‘Long March 4B | Feng Yun 1C’, on board a Long March 4B space rocket.

The launch took place on May 10, 1999, 1:33 a.m. from Launch Complex 7.

For more information about the launch, click the button.

Launch to space Long March 4B | Feng Yun 1C
Long March 4B | Feng Yun 1C

Agency: N/A

Status: Launch Successful

Launch date: May 10, 1999, 1:33 a.m. UTC

Rocket: Long March 4B

Launch pad: Launch Complex 7

Location: Taiyuan Satellite Launch Center, People's Republic of China

...

Latest news about this satellite

There are no fresh news available about this satellite. Check back as we update our databases every day.


Newsletter sign-up

Weekly statistics, charts and insights to help you stay on top of the space industry.